Showing default

OPS 3367 B, 735

Orbit data source: Space-Track

OPS 3367 B, 735 is an American payload satellite in SSO that was launched on Sun, 19 Jan 1964 UTC via a THOR SLV-2 AGENA D launch vehicle from the Air Force Western Test Range (AFWTR). Payloads include a variety of satellites, spacecraft, and rockets equipped with specific instruments for various scientific and technological missions. These include communications satellites like Starlink; space stations such as the ISS; scientific satellites like the Hubble; Earth observation satellites from companies like Planet Labs, Umbra, and HawkEye 360; GPS; miniature CubeSats for education and research; and military/defense satellites.

Loading next visibility...
OPS 3367 B details
Identifier
735, 1964-002C
Orbit
SSO
Last TLE update17 hours ago
Origin
Flag of USNRO/SAFSP (US)
ManufacturerRCA/East Windsor
MissionDefense Weather
Bus & MotorP35, Unknown motor
Mass50 kg wet, 50 kg dry
Launch date (UTC)
1964-01-19 (61 years ago)
Launch vehicle
THOR SLV-2 AGENA D
Launch site
Air Force Western Test Range (AFWTR)
Object type
Payload
Rocket body
Debris
Shape & HBRCyl, 0.6 m
Radar Cross Section0.377 m², Medium (>0.1 m² and < 1m²)

Expand to show TLE details & history

TLE from 17 hours ago
0 OPS 3367 B
1 00735U 64002C   25015.29058961  .00000216  00000-0  10500-3 0  9998
2 00735  98.9950 279.9605 0016753  10.7393 349.4142 14.28363782172775
Epoch: 2025-01-15T06:58Z
Definitive object data (Epoch: 2025-01-15T06:58:26.942Z)
Latitude0.00001°
Longitude60.36319°
Altitude788.304 km
Speed7.466 km/s
True Right ascension18h 39m 50s
True Declination0° 00' 00"
Sunlit
Object was in daylight at TLE epoch
Visualization TLE readout
Latitude-7.49029°
Longitude62.26943°
Altitude789.848 km
Speed7.464 km/s
Apparent Right ascension16h 22m 48s
Apparent Declination-31° 09' 26"
Sunlit
Object is in daylight
Visualization observer readout
Local Sidereal Time00:27:16
Azimuth261.227° W
Elevation-42.158°
Doppler factor1
Orbital elements
Apogee altitude806.383 km
Perigee altitude782.351 km
Semi-major axis7,172.504 km
Eccentricity0.0016753
Inclination98.995°
RAAN279.9605°
Arg. of periapsis10.7393°
True anomaly349.37886°
Mean anomaly349.4142°
Eccentric anomaly349.39654°
Mean motion3.57303 °/min
BSTAR0.000105
Orbital period100.75 mins
Loading maneuver chart data...
Loading historical data...
Loading historical data...
Loading historical data...
Loading historical data...
Loading historical data...
Loading historical data...
Loading historical data...
Other satellites on launch #2 in the year 1964 (1964-01-19 UTC)

OPS 3367 B Visibility forecast

Observer location: undefined°, undefined

Span
Click to sort rows by Start time (UTC) header in descending order
Start Az.
Max El. time (UTC)
Max El. Az.
Max El.
End time (UTC)
End Az.
7 mins2025-01-16 05:26:03.361Z48.822° ENE2025-01-16 05:29:03.361Z89.847° E22.199°2025-01-16 05:33:03.361Z144.846° SSE
7 mins2025-01-16 07:06:03.361Z347.444° N2025-01-16 07:09:03.361Z289.908° WNW32.922°2025-01-16 07:13:03.361Z226.764° WSW
7 mins2025-01-16 16:45:03.361Z120.862° SE2025-01-16 16:48:03.361Z63.321° ENE30.603°2025-01-16 16:52:03.361Z5.735° NNE
6 mins2025-01-16 18:25:03.361Z224.8° SW2025-01-16 18:27:03.361Z256.162° W23.406°2025-01-16 18:31:03.361Z315.182° NNW
|